Terug naar catalogus

NAVSTAR 30

USA 88

ActiefNavigatieMEO
NORAD 22446·PAYLOAD·🇺🇸 United States

Gelanceerd Feb 3, 1993 vanaf Cape Canaveral Space Force Station

Loading…

Volgende Passages (komende 24 uur)

TLE

VersSource: Space-Track

Epoch: Sep 11, 2026, 09:47 UTC

1 22446U 93007A   26254.40817638 -.00000010  00000-0  00000-0 0  9995
2 22446  53.2270 239.9255 0027559  43.6841 131.7748  1.88094935235624

Volg NAVSTAR 30 in realtime met AllMySat

Download on the App Store